[[{"header":{"parameterUnit":"m.s-1","parameterCategory":1,"la1":30.2991,"la2":30.254,"lo1":-89.0895,"lo2":-89.0444,"dy":0.0017,"dx":0.0017,"nx":28,"ny":28,"refTime":"2025-04-04T21:00:00:Z","depth":0,"parameterNumber":2,"parameterNumberName":"U-component_of_WINDS"},"data":[0,0,0,0,0,0,0,0,0,0,0,0,0,0,0,0,0,0,0,0,0,0,0,0,0,0,0,0,0,0,0,0,0,0,0,0,0,0,0,0,0,0,0,0,0,0,0,0,0,0,0,0,0,0,0,0,0,0,-7.1023,-7.1024,0,-7.113,-7.1132,-7.1133,-7.1088,-7.1085,-7.1082,-7.108,-7.1186,-7.1191,-7.1196,0,0,0,0,0,0,0,0,0,0,0,0,0,-7.0777,-7.0782,-7.1023,-7.1024,-7.1026,-7.113,-7.1132,-7.1133,-7.1088,-7.1085,-7.1082,-7.1079,-7.1184,-7.1191,-7.1197,0,0,0,0,0,0,0,0,0,0,0,0,0,-7.0884,-7.0783,-7.1023,-7.1016,-7.1016,-7.113,-7.1132,-7.1133,-7.1089,-7.1085,-7.1081,-7.1077,-7.1182,-7.119,-7.1198,-7.1323,0,0,-7.1222,-7.1225,0,0,0,0,0,0,0,0,-7.0878,-7.0893,-7.1016,-7.1017,-7.1017,-7.1092,-7.1084,-7.1197,-7.109,-7.1061,-7.108,-7.1075,-7.1158,-7.1167,-7.1196,-7.1328,-7.1333,-7.1222,-7.1227,-7.1231,-7.1233,0,0,0,0,0,0,0,-7.0871,-7.0888,-7.1065,-7.1017,-7.1019,-7.1007,-7.1018,-7.1105,-7.113,-7.1063,-7.106,-7.1074,-7.1157,-7.1188,-7.1198,-7.1334,-7.1222,-7.1229,-7.1234,-7.1237,-7.1574,-7.1578,0,0,0,0,0,0,-7.0864,-7.0882,-7.1062,-7.1069,-7.0937,-7.1014,-7.1027,-7.1072,-7.1129,-7.1134,-7.1077,-7.1071,-7.1177,-7.1189,-7.1201,-7.135,-7.123,-7.1238,-7.1242,-7.157,-7.1575,-7.158,0,0,0,0,0,0,-7.0858,-7.088,-7.1058,-7.0975,-7.0997,-7.1023,-7.1074,-7.1076,-7.1107,-7.1139,-7.1143,-7.1104,-7.1174,-7.119,-7.1293,-7.1353,-7.1241,-7.1248,-7.1565,-7.1572,-7.1578,-7.165,0,0,0,0,0,0,-7.0852,-7.0878,-7.0927,-7.0976,-7.1001,-7.1149,-7.1078,-7.1081,-7.1121,-7.1114,-7.1165,-7.117,-7.1172,-7.1282,-7.1301,-7.1362,-7.1255,-7.156,-7.1568,-7.1576,-7.1642,-7.1658,-7.1672,0,0,0,0,0,-7.0843,-7.0942,-7.0929,-7.0951,-7.1062,-7.1152,-7.1166,-7.1168,-7.1126,-7.1174,-7.1195,-7.1168,-7.1345,-7.1293,-7.1314,-7.1378,-7.1556,-7.1566,-7.1575,-7.1636,-7.1655,-7.1671,0,0,0,0,0,0,-7.0897,-7.0948,-7.0935,-7.1053,-7.1099,-7.1144,-7.1205,-7.1188,-7.1246,-7.1237,-7.1236,-7.1248,-7.1354,-7.1377,-7.1318,-7.1503,-7.1444,-7.1458,-7.1483,-7.1501,-7.1516,-7.1506,-7.1261,0,0,0,0,0,-7.0923,-7.0993,-7.1034,-7.1134,-7.1158,-7.1178,-7.1217,-7.1215,-7.1262,-7.128,-7.1309,-7.1354,-7.142,-7.1462,-7.1525,-7.1647,-7.1657,-7.1702,-7.1717,-7.1729,-7.174,-7.1805,-7.1825,-7.1611,-7.1611,-7.1611,0,0,-7.0977,-7.1014,-7.1057,-7.1146,-7.1181,-7.1252,-7.1194,-7.1272,-7.1324,-7.1292,-7.139,-7.1413,-7.1464,-7.1577,-7.1628,-7.1599,-7.1802,-7.1741,-7.175,-7.1755,-7.1817,-7.1837,-7.1855,-7.1618,-7.1617,-7.1616,0,0,-7.111,-7.1147,-7.1233,-7.1271,-7.1325,-7.1338,-7.1359,-7.1408,-7.1422,-7.1522,-7.1499,-7.1561,-7.1675,-7.1711,-7.1745,-7.1896,-7.1872,-7.1916,-7.1991,-7.2054,-7.2071,-7.2086,-7.2137,-7.2156,-7.1928,-7.1928,-7.1928,0,-7.1169,-7.1276,-7.128,-7.136,-7.1399,-7.1376,-7.1463,-7.1498,-7.157,-7.1597,-7.1565,-7.1707,-7.174,-7.186,-7.1897,-7.1926,-7.1949,-7.1908,-7.2069,-7.2084,-7.2098,-7.2146,-7.2166,-7.1933,-7.1932,-7.1932,-7.1931,0,-7.1345,-7.142,-7.1484,-7.1555,-7.1602,-7.1685,-7.17,-7.1748,-7.1743,-7.1759,-7.186,-7.19,-7.1969,-7.1998,-7.1993,-7.2118,-7.2099,-7.2069,-7.2008,-7.2122,-7.2168,-7.2187,-7.194,-7.1938,-7.1936,-7.1935,0,0,-7.1511,-7.1585,-7.1608,-7.164,-7.17,-7.1757,-7.184,-7.1909,-7.1949,-7.2,-7.2068,-7.2166,-7.2138,-7.2177,-7.2176,-7.2233,-7.2347,-7.2195,-7.2196,-7.2219,-7.2484,-7.2504,-7.2525,-7.2334,-7.2338,-7.2341,-7.2479,0,-7.1646,-7.1791,-7.1798,-7.1929,-7.1998,-7.1978,-7.205,-7.2094,-7.2113,-7.2173,-7.2193,-7.2261,-7.2221,-7.2244,-7.2299,-7.2321,-7.2399,-7.2312,-7.2394,-7.2397,-7.2378,-7.255,-7.2571,-7.2699,-7.2497,-7.25,-7.2502,0,-7.1822,-7.188,-7.2019,-7.2069,-7.2098,-7.2162,-7.2226,-7.2285,-7.2335,-7.2344,-7.2389,-7.2381,-7.2465,-7.2406,-7.252,-7.2461,-7.2496,-7.2512,-7.2517,-7.2521,-7.2453,-7.2555,-7.274,-7.2758,-7.2531,-7.2529,-7.2527,0,-7.1925,-7.2038,-7.2135,-7.2164,-7.2226,-7.2272,-7.23,-7.2346,-7.2387,-7.2444,-7.247,-7.2536,-7.2571,-7.2622,-7.2631,-7.2588,-7.2745,-7.2688,-7.2753,-7.2753,-7.2783,-7.278,-7.2972,-7.2813,-7.2813,-7.2812,-7.2812,0,-7.2073,-7.2157,-7.2182,-7.2242,-7.2336,-7.2344,-7.2437,-7.2462,-7.2504,-7.2567,-7.2555,-7.2614,-7.2626,-7.2688,-7.2697,-7.2788,-7.2805,-7.2814,-7.2814,-7.2812,-7.2811,-7.2832,-7.2821,-7.2817,-7.2816,-7.2815,-7.2814,0,-7.2201,-7.2222,-7.2326,-7.2378,-7.2393,-7.246,-7.2503,-7.256,-7.2579,-7.2659,-7.2678,-7.2706,-7.2779,-7.2795,-7.2881,-7.2887,-7.2995,-7.2989,-7.2977,-7.2976,-7.3039,-7.3031,-7.3248,-7.3275,-7.3102,-7.3103,-7.3105,0,-7.2292,-7.2357,-7.2416,-7.2458,-7.2488,-7.2556,-7.2599,-7.2611,-7.2655,-7.2718,-7.2767,-7.2838,-7.2895,-7.3012,-7.3039,-7.3105,-7.3097,-7.3169,-7.3107,-7.3103,-7.3094,-7.3088,-7.3094,-7.3179,-7.3181,-7.3183,-7.3184,0,-7.245,-7.2457,-7.252,-7.2586,-7.2638,-7.2691,-7.2741,-7.2776,-7.2794,-7.2845,-7.2919,-7.2964,-7.3053,-7.3123,-7.3189,-7.3217,-7.3203,-7.3204,-7.3222,-7.3218,-7.3208,-7.3211,-7.3005,-7.3198,-7.3196,-7.3195,-7.3195,-7.3194,-7.2559,-7.2616,-7.2666,-7.2736,-7.2776,-7.2824,-7.2879,-7.2906,-7.2968,-7.3041,-7.3045,-7.3125,-7.3175,-7.3262,-7.3295,-7.3357,-7.3335,-7.3361,-7.3367,-7.3373,-7.3377,-7.3202,-7.337,-7.3369,-7.3369,-7.3369,-7.3368,0,-7.2713,-7.2746,-7.2811,-7.2882,-7.2937,-7.2923,-7.2978,-7.3024,-7.3095,-7.3143,-7.3201,-7.3286,-7.3355,-7.3389,-7.3457,-7.35,-7.3496,-7.3517,-7.3512,-7.3518,-7.3395,-7.337,-7.352,-7.352,-7.352,-7.352,-7.352,-7.352,-7.2799,-7.2893,-7.2908,-7.3021,-7.3053,-7.3132,-7.3165,-7.3208,-7.3246,-7.3342,-7.34,-7.3423,-7.3465,-7.3537,-7.3599,-7.3607,-7.3631,-7.3655,-7.366,-7.3543,-7.3527,-7.3512,-7.3489,-7.3661,-7.3661,-7.3778,-7.3779,-7.378]},{"header":{"parameterUnit":"m.s-1","parameterCategory":1,"la1":30.2991,"la2":30.254,"lo1":-89.0895,"lo2":-89.0444,"dy":0.0017,"dx":0.0017,"nx":28,"ny":28,"refTime":"2025-04-04T21:00:00:Z","depth":0,"parameterNumber":3,"parameterNumberName":"V-component_of_WINDS"},"data":[0,0,0,0,0,0,0,0,0,0,0,0,0,0,0,0,0,0,0,0,0,0,0,0,0,0,0,0,0,0,0,0,0,0,0,0,0,0,0,0,0,0,0,0,0,0,0,0,0,0,0,0,0,0,0,0,0,0,3.1487,3.1488,0,3.1596,3.1597,3.1598,3.1641,3.164,3.164,3.164,3.1748,3.1751,3.1754,0,0,0,0,0,0,0,0,0,0,0,0,0,3.1315,3.1318,3.1487,3.1488,3.149,3.1596,3.1597,3.1599,3.1641,3.164,3.164,3.164,3.1747,3.1751,3.1754,0,0,0,0,0,0,0,0,0,0,0,0,0,3.1403,3.1319,3.1487,3.1524,3.1528,3.1595,3.1597,3.1599,3.1641,3.164,3.164,3.1639,3.1746,3.175,3.1755,3.1793,0,0,3.1769,3.1771,0,0,0,0,0,0,0,0,3.1398,3.141,3.1517,3.1521,3.1526,3.1604,3.1576,3.1664,3.1641,3.1598,3.164,3.1639,3.17,3.1709,3.173,3.1798,3.1802,3.177,3.1773,3.1775,3.1776,0,0,0,0,0,0,0,3.1392,3.1405,3.153,3.1518,3.1524,3.1535,3.1547,3.1593,3.165,3.1602,3.1605,3.1617,3.1703,3.1725,3.1733,3.1804,3.177,3.1774,3.1777,3.1778,3.1912,3.1913,0,0,0,0,0,0,3.138,3.14,3.1527,3.1533,3.146,3.1538,3.1551,3.158,3.165,3.166,3.1618,3.1619,3.1717,3.1727,3.1737,3.1788,3.1775,3.1779,3.1782,3.1911,3.1912,3.1913,0,0,0,0,0,0,3.1376,3.1391,3.1522,3.1468,3.1485,3.1541,3.1573,3.1582,3.1605,3.1662,3.1672,3.163,3.1717,3.173,3.178,3.1792,3.1781,3.1785,3.1911,3.1912,3.1913,3.1889,0,0,0,0,0,0,3.1371,3.1389,3.1404,3.1468,3.1488,3.1563,3.1573,3.1584,3.1613,3.1616,3.1676,3.1686,3.1718,3.1772,3.1784,3.1799,3.1789,3.191,3.1911,3.1912,3.1889,3.1889,3.189,0,0,0,0,0,3.1365,3.1392,3.1405,3.142,3.1508,3.1564,3.1575,3.1613,3.1614,3.163,3.1667,3.1684,3.1789,3.1777,3.1791,3.1807,3.1909,3.1911,3.1912,3.1889,3.1889,3.189,0,0,0,0,0,0,3.1326,3.1401,3.1416,3.1464,3.1508,3.1571,3.1591,3.1611,3.1654,3.1655,3.1698,3.1712,3.1758,3.1787,3.1773,3.1849,3.185,3.1855,3.1828,3.1829,3.1829,3.1821,3.1793,0,0,0,0,0,3.1324,3.1364,3.1426,3.1463,3.1484,3.1534,3.156,3.1585,3.1631,3.165,3.169,3.1734,3.1778,3.1805,3.1847,3.1894,3.1909,3.1912,3.1912,3.1912,3.1915,3.1945,3.1948,3.1918,3.1918,3.1918,0,0,3.1318,3.1364,3.1386,3.1456,3.1493,3.1534,3.1549,3.159,3.1621,3.1656,3.1706,3.1737,3.1789,3.1838,3.1862,3.1864,3.1927,3.1914,3.1914,3.1917,3.1947,3.195,3.1952,3.1919,3.1919,3.1919,0,0,3.1329,3.1367,3.1403,3.144,3.1497,3.153,3.1539,3.16,3.1624,3.1675,3.1703,3.174,3.1812,3.1849,3.1877,3.1907,3.1925,3.1919,3.192,3.1949,3.1951,3.1953,3.1965,3.1969,3.1922,3.1922,3.1922,0,3.1314,3.1377,3.1418,3.146,3.1491,3.1526,3.1564,3.1598,3.1664,3.1685,3.1687,3.1782,3.1819,3.1879,3.1886,3.1907,3.1919,3.1912,3.1947,3.195,3.1953,3.1965,3.1969,3.1921,3.1921,3.1921,3.1922,0,3.1358,3.1401,3.1423,3.149,3.1523,3.1562,3.161,3.1639,3.1663,3.1696,3.175,3.1796,3.185,3.1866,3.1888,3.193,3.193,3.1939,3.1941,3.1954,3.1966,3.1971,3.192,3.192,3.1921,3.1921,0,0,3.1344,3.1436,3.1444,3.1476,3.1542,3.1576,3.1618,3.1673,3.1698,3.1744,3.178,3.1843,3.1854,3.1886,3.1912,3.1937,3.196,3.1944,3.1946,3.1947,3.2012,3.2005,3.2009,3.1973,3.1974,3.1975,3.2008,0,3.1365,3.1442,3.1482,3.1542,3.1584,3.162,3.1657,3.1702,3.1735,3.1776,3.1812,3.1857,3.1866,3.1886,3.1913,3.1952,3.1974,3.195,3.2008,3.201,3.1995,3.2016,3.2008,3.2036,3.2013,3.2013,3.2014,0,3.1398,3.1447,3.1511,3.1577,3.1596,3.1628,3.1683,3.1721,3.1774,3.1797,3.1835,3.1862,3.1908,3.1908,3.1973,3.1956,3.1982,3.2005,3.2008,3.2014,3.2013,3.2024,3.2046,3.2051,3.2022,3.2021,3.202,0,3.1385,3.1465,3.1515,3.1541,3.1618,3.164,3.1673,3.1726,3.1757,3.1805,3.1827,3.1879,3.1908,3.1948,3.1989,3.1985,3.2051,3.2053,3.2072,3.2071,3.2084,3.2082,3.2111,3.2099,3.2099,3.2099,3.2099,0,3.1403,3.1442,3.1511,3.1541,3.1586,3.1633,3.1676,3.1712,3.1759,3.1798,3.1832,3.1867,3.1919,3.1962,3.1994,3.2044,3.2057,3.2077,3.2085,3.2074,3.2072,3.2092,3.2091,3.2101,3.21,3.21,3.21,0,3.1395,3.1442,3.15,3.1569,3.1587,3.1618,3.1677,3.1709,3.1745,3.1794,3.1808,3.1865,3.1918,3.1963,3.2031,3.2053,3.2105,3.2115,3.2088,3.2092,3.2109,3.2107,3.2152,3.2162,3.2142,3.2143,3.2143,0,3.1404,3.1435,3.1509,3.1538,3.1571,3.1617,3.1651,3.1699,3.1732,3.1797,3.1821,3.1876,3.1923,3.2005,3.2052,3.2105,3.2117,3.2129,3.2124,3.2114,3.2119,3.2116,3.2121,3.2129,3.2129,3.2129,3.2129,0,3.1415,3.1439,3.1486,3.1543,3.1582,3.1629,3.1676,3.1698,3.1755,3.1791,3.1846,3.1882,3.1954,3.2009,3.2068,3.2102,3.2125,3.213,3.2137,3.2127,3.211,3.2121,3.2089,3.2128,3.2128,3.2128,3.2128,3.2128,3.1417,3.1448,3.1505,3.1558,3.16,3.1644,3.1678,3.1721,3.1768,3.1831,3.1856,3.1913,3.1968,3.205,3.2084,3.2129,3.2133,3.2143,3.2146,3.2148,3.2147,3.2103,3.214,3.214,3.214,3.214,3.214,0,3.1432,3.1472,3.152,3.1587,3.1629,3.1649,3.1704,3.1737,3.1787,3.1837,3.1884,3.1948,3.2003,3.2056,3.2113,3.2139,3.2151,3.2152,3.2151,3.2159,3.2139,3.2128,3.2142,3.2142,3.2142,3.2142,3.2142,3.2142,3.1444,3.1498,3.1528,3.1604,3.1644,3.17,3.173,3.1772,3.1813,3.1884,3.193,3.1965,3.2017,3.2079,3.213,3.2145,3.2165,3.2163,3.218,3.2161,3.216,3.2159,3.2149,3.2167,3.2167,3.2197,3.2197,3.2197]}]]